Find OneWeb SL0112

NORAD ID: 48051 Int'l Des: 2021-025 Owner: ONEWEBN Country: UK Constellation: oneweb operational
LEOCIRCULARPOLARONEWEB_TYPE

实时位置

正在加载3D地球...

关于 OneWeb SL0112

正在加载描述...

即将过境

Passes for default location (London). Set your location on the main map for personalized predictions.

高度历史

Loading altitude history...

两行轨道根数

1 48051U 21025K 26125.52642330 -.00000139 00000-0 -41511-3 0 9999
2 48051 87.8961 328.7045 0001585 82.2896 277.8413 13.13470570247996
Epoch: May 5, 2026 • Age: 16 hours

当前状态

高度 1218.5 km
速度 7.24 km/s
星下点 -22.56°S, 29.01°E
发射日期 Mar 25, 2021
运行时间 5.1 years
类型 internet

技术详情

分类 Payload
质量 148.00 kg
干质量 140.00 kg
总质量 148.00 kg
长度 1.30 m
直径 1.00 m
跨度 5.00 m
形状 Trapezoid+2 pan
制造商 ONEWUS
平台类型 ARROW
阶段状态 In Orbit
所有者/国家 ONEWEBN/UK

Most Searched